Вернуться в каталог

COSMOS 1520

GLONASS

АктивенНавигацияMEO
NORAD 14591·PAYLOAD·🇷🇺 Russia

Запущен Dec 29, 1983 с Baikonur Cosmodrome

Loading…

Ближайшие Пролёты (ближайшие 24 часа)

TLE

УстаревающийSource: Space-Track

Эпоха: Aug 29, 2026, 04:42 UTC

1 14591U 83127B   26241.19611859 -.00000043  00000-0  00000+0 0  9993
2 14591  66.3798 326.6297 0024578 170.6014 242.9286  2.13103109272511

Отслеживайте COSMOS 1520 в реальном времени с AllMySat

Download on the App Store